This is the latest recevied weather packets stored in our database for station/object WD9EKA. If no packets are shown the sender has not sent any weather packets the latest 10 day(s).
| Time | Temp. | Humidity | Pressure | Rain* | Wind** | Luminosity | Snow |
|---|---|---|---|---|---|---|---|
| 1778126930 | 5° C | 97% | 1011.7 hPa | 0 mm | - | - | - |
| 1778126610 | 5° C | 97% | 1011.7 hPa | 0 mm | - | - | - |
| 1778126290 | 5° C | 96% | 1011.8 hPa | 0 mm | - | - | - |
| 1778125970 | 5° C | 96% | 1011.7 hPa | 0 mm | - | - | - |
| 1778125650 | 5° C | 96% | 1011.8 hPa | 0 mm | - | - | - |
| 1778125331 | 5° C | 96% | 1011.5 hPa | 0 mm | - | - | - |
| 1778125010 | 5.56° C | 95% | 1011.9 hPa | 0 mm | - | - | - |
| 1778124691 | 5.56° C | 95% | 1011.7 hPa | 0 mm | - | - | - |
| 1778124371 | 5.56° C | 94% | 1011.6 hPa | 0 mm | - | - | - |
| 1778124051 | 5.56° C | 94% | 1011.7 hPa | 0 mm | - | - | - |
| 1778123731 | 5.56° C | 94% | 1011.5 hPa | 0 mm | - | - | - |
| 1778123091 | 5.56° C | 93% | 1011.5 hPa | 0 mm | - | - | - |
| 1778122770 | 5.56° C | 92% | 1011.8 hPa | 0 mm | - | - | - |
| 1778121795 | 6.11° C | 91% | 1011.6 hPa | 0 mm | - | - | - |
| 1778121474 | 6.11° C | 90% | 1011.3 hPa | 0 mm | - | - | - |
| 1778121153 | 6.67° C | 90% | 1011.5 hPa | 0 mm | - | - | - |
| 1778120515 | 6.67° C | 89% | 1011.2 hPa | 0 mm | - | - | - |
| 1778120193 | 7.22° C | 88% | 1011.2 hPa | 0 mm | - | - | - |
| 1778119875 | 7.22° C | 87% | 1011.2 hPa | 0 mm | - | - | - |
| 1778119555 | 6.67° C | 86% | 1011 hPa | 0 mm | - | - | - |
| 1778119234 | 7.22° C | 85% | 1010.8 hPa | 0 mm | - | - | - |
| 1778118915 | 7.22° C | 84% | 1011 hPa | 0 mm | - | - | - |
| 1778118273 | 7.78° C | 83% | 1010.9 hPa | 0 mm | - | - | - |
| 1778117955 | 7.78° C | 82% | 1010.8 hPa | 0 mm | - | - | - |
| 1778117313 | 8.33° C | 79% | 1010.8 hPa | 0 mm | - | - | - |
* Rain latest hour (hover to see other rain measurements)
** Current wind speed in m/s (hover to see current wind gust speed)